Date,TemperatureHighF,TemperatureAvgF,TemperatureLowF,DewpointHighF,DewpointAvgF,DewpointLowF,HumidityHigh,HumidityAvg,HumidityLow,PressureMaxIn,PressureMinIn,WindSpeedMaxMPH,WindSpeedAvgMPH,GustSpeedMaxMPH,PrecipitationSumIn
2013-1-1,15,10,6,11,7,3,88,87,84,23.40,23.28,8,1,8,0.00
2013-1-2,18,9,3,13,6,-1,89,85,81,23.42,23.38,3,0,3,0.00
2013-1-3,21,10,1,12,5,-3,86,80,64,23.44,23.39,4,0,4,0.00
2013-1-4,23,15,11,12,7,5,78,71,61,23.41,23.34,5,1,5,0.00
2013-1-5,27,18,10,17,10,3,75,70,63,23.45,23.35,3,1,3,0.00
2013-1-6,34,25,18,18,13,9,75,61,49,23.35,23.19,2,1,2,0.00
2013-1-7,31,23,16,19,11,5,82,59,46,23.28,23.21,8,2,8,0.00
2013-1-8,31,28,24,26,23,20,87,84,79,23.48,23.26,4,1,4,0.00
2013-1-9,38,29,20,26,22,18,90,76,59,23.47,23.08,3,1,3,0.00
2013-1-10,42,30,15,23,19,11,85,64,42,23.07,22.77,11,3,11,0.00
2013-1-11,14,11,8,10,7,5,86,85,81,23.02,22.76,9,3,9,0.00
2013-1-12,8,5,-2,5,0,-7,85,82,79,23.11,23.01,4,1,4,0.00
2013-1-13,7,-1,-5,2,-5,-10,83,81,78,23.19,23.09,4,0,4,0.00
2013-1-14,4,-2,-8,-1,-7,-12,83,81,78,23.34,23.17,5,1,5,0.00
2013-1-15,12,7,1,8,3,-3,87,83,82,23.54,23.33,6,2,6,0.00
2013-1-16,21,14,8,18,10,4,90,86,82,23.61,23.55,5,1,5,0.00
2013-1-17,28,18,12,24,15,9,89,86,82,23.60,23.51,2,0,2,0.00
2013-1-18,30,23,18,20,16,13,86,73,54,23.51,23.46,4,1,4,0.00
2013-1-19,34,25,20,20,14,10,72,61,47,23.54,23.47,4,1,4,0.00
2013-1-20,32,25,19,15,10,7,64,54,43,23.50,23.46,4,1,4,0.00
2013-1-21,36,26,19,17,11,7,61,51,43,23.51,23.44,4,1,4,0.00
2013-1-22,40,30,23,16,10,6,54,43,33,23.47,23.41,3,1,3,0.00
2013-1-23,45,36,30,18,14,8,48,40,30,23.44,23.38,3,1,3,0.00
2013-1-24,38,34,32,32,27,18,91,76,48,23.43,23.35,2,1,2,0.00
2013-1-25,38,34,32,35,32,30,93,91,84,23.43,23.35,1,0,1,0.00
2013-1-26,40,36,32,34,31,29,90,83,75,23.18,23.05,5,1,5,0.00
2013-1-27,35,28,19,31,26,17,93,90,78,23.06,22.90,10,1,10,0.00
2013-1-28,21,17,12,17,13,9,91,87,82,23.09,23.01,6,1,6,0.00
2013-1-29,22,16,11,18,13,8,90,87,84,23.26,22.99,6,1,6,0.00
2013-1-30,29,24,17,27,22,14,94,91,89,23.34,23.25,14,3,14,0.00
2013-1-31,31,28,27,26,25,24,89,86,78,23.44,23.32,12,2,12,0.00
2013-2-1,34,28,23,28,24,18,91,83,75,23.51,23.38,9,1,9,0.00
2013-2-2,36,25,18,24,18,14,87,77,60,23.56,23.46,5,1,5,0.00
2013-2-3,36,28,23,19,16,14,71,61,41,23.45,23.30,6,1,6,0.00
2013-2-4,37,29,22,22,17,14,73,61,49,23.34,23.30,7,1,7,0.00
2013-2-5,43,32,24,21,17,14,67,54,38,23.31,23.11,4,1,4,0.00
2013-2-6,35,30,20,21,17,11,75,58,46,23.31,23.11,6,2,6,0.00
2013-2-7,37,24,14,15,12,7,76,59,37,23.31,23.10,5,1,5,0.00
2013-2-8,34,27,24,23,17,14,77,66,59,23.10,22.92,8,2,8,0.00
2013-3-1,39,33,28,31,27,23,82,77,69,23.61,23.57,4,2,4,0.00
2013-3-2,44,31,24,29,24,21,86,75,53,23.60,23.42,4,1,4,0.00
2013-3-5,43,27,11,23,14,6,80,58,37,23.35,23.21,5,2,5,0.00
2013-3-8,38,36,28,31,29,19,77,75,69,23.18,23.00,5,2,5,0.00
2013-3-9,38,28,21,30,22,16,86,78,64,23.36,23.00,6,2,6,0.00
2013-3-10,38,29,20,24,19,15,84,68,51,23.45,23.35,6,2,6,0.00
2013-3-11,41,37,28,28,23,18,70,58,47,23.43,23.32,14,2,14,0.00
2013-3-12,44,39,33,32,29,27,83,68,56,23.45,23.36,7,2,7,0.00
2013-3-13,52,40,31,32,28,25,82,62,40,23.54,23.45,6,2,6,0.00
2013-3-14,59,46,36,28,25,22,60,46,25,23.50,23.40,7,2,7,0.00
2013-3-15,54,47,40,30,24,18,55,41,27,23.40,23.25,7,2,7,0.00
2013-3-16,45,40,34,27,22,15,57,47,37,23.25,23.06,10,2,10,0.00
2013-3-17,37,31,25,28,21,12,85,67,50,23.17,23.01,11,2,11,0.00
2013-3-18,37,31,25,18,16,12,75,56,45,23.27,23.17,10,2,10,0.00
2013-3-19,45,33,24,17,7,-1,58,36,20,23.37,23.26,5,1,5,0.00
2013-3-20,37,34,29,34,24,6,90,69,36,23.33,23.05,5,1,5,0.00
2013-3-21,39,27,18,33,22,13,92,83,68,23.16,22.96,12,2,12,0.00
2013-3-22,22,19,16,18,14,10,85,79,70,23.14,23.03,8,1,8,0.00
2013-3-23,26,18,12,18,12,7,86,78,66,23.28,23.11,7,1,7,0.00
2013-3-24,27,16,9,18,10,4,82,76,59,23.28,23.25,4,1,4,0.00
2013-3-25,40,24,10,24,15,4,82,68,51,23.29,23.23,4,1,4,0.00
2013-3-26,47,35,28,26,23,21,79,62,37,23.23,23.13,9,1,9,0.00
2013-3-27,53,40,28,29,25,21,82,57,36,23.25,23.19,5,1,5,0.00
2013-3-28,53,42,33,29,25,21,66,52,32,23.31,23.24,8,1,8,0.00
2013-3-29,54,44,36,33,29,26,73,57,39,23.40,23.30,9,2,9,0.00
2013-3-30,54,43,34,32,28,25,72,56,34,23.40,23.35,8,2,8,0.00
2013-3-31,57,43,31,28,24,15,73,49,22,23.37,23.21,6,2,6,0.00
2013-4-1,44,38,32,36,32,28,90,78,52,23.24,23.16,13,1,13,0.00
2013-4-2,43,36,32,38,33,29,93,89,82,23.29,23.16,0,0,0,0.00
2013-4-3,55,44,35,38,32,24,89,64,41,23.38,23.30,6,1,6,0.00
2013-4-4,58,46,34,34,28,24,71,50,30,23.37,23.21,7,1,7,0.00
2013-4-5,50,41,34,37,31,26,90,68,44,23.26,23.16,10,1,10,0.00
2013-4-6,48,39,33,35,29,25,81,67,47,23.24,23.21,8,1,8,0.00
2013-4-7,48,42,32,33,28,24,82,60,42,23.20,22.92,11,2,11,0.00
2013-4-8,42,34,21,31,27,17,91,79,46,22.93,22.74,7,0,7,0.00
2013-4-9,22,18,13,18,13,10,88,82,72,23.27,22.85,2,0,2,0.00
2013-4-10,39,32,14,29,23,10,85,71,65,23.29,23.19,5,1,5,0.00
2013-4-11,45,35,32,37,31,27,93,86,71,23.20,23.13,6,1,6,0.00
2013-4-13,45,36,28,33,29,23,89,76,50,23.16,22.86,10,2,10,0.00
2013-4-14,36,28,19,22,15,10,82,59,40,23.06,22.90,7,1,7,0.00
2013-4-15,34,28,24,28,24,20,88,83,76,22.95,22.86,4,1,4,0.00
2013-4-16,28,26,21,23,20,14,86,76,66,23.11,22.88,8,1,8,0.00
2013-4-17,32,24,17,21,13,9,75,65,50,23.29,23.11,8,2,8,0.00
2013-4-18,38,28,18,15,9,2,65,46,35,23.42,23.30,8,2,8,0.00
2013-4-19,41,33,25,30,21,10,83,62,46,23.40,23.21,8,1,8,0.00
2013-4-20,36,33,32,34,30,28,93,90,83,23.29,23.19,5,1,5,0.00
2013-4-22,36,32,28,19,17,16,67,56,46,23.29,23.24,6,1,6,0.00
2013-4-23,36,26,21,19,17,10,77,68,35,23.35,23.28,7,1,7,0.00
2013-4-26,56,56,55,20,19,17,25,24,22,23.45,23.44,8,2,8,0.00
2013-4-27,60,54,46,26,23,20,43,31,21,23.46,23.38,11,2,11,0.00
2013-4-28,63,48,41,31,26,23,52,42,27,23.37,23.24,5,2,5,0.00
2013-4-29,47,47,47,27,27,27,45,45,45,0.00,40.00,3,3,3,0.00
2013-5-5,50,47,42,32,31,29,60,53,49,23.21,23.21,0,0,0,0.00
2013-5-6,46,44,42,36,35,35,77,71,65,23.22,23.19,0,0,0,0.00
2013-5-7,55,46,36,40,35,31,89,68,45,23.24,23.16,0,0,0,0.00
2013-5-8,55,43,35,42,36,30,91,79,56,23.33,23.22,0,0,0,0.00
2013-5-9,60,48,36,41,34,27,92,62,28,23.39,23.32,8,1,8,0.00
2013-5-10,66,52,40,41,35,32,71,55,34,23.50,23.39,5,2,5,0.00
2013-5-11,69,56,43,37,32,23,68,43,24,23.53,23.48,4,1,4,0.00
2013-5-12,72,59,46,36,31,23,54,36,23,23.52,23.45,6,2,6,0.00
2013-5-13,78,63,49,38,34,31,51,35,21,23.47,23.34,5,2,5,0.00
2013-5-14,75,66,57,41,35,30,47,33,22,23.35,23.24,4,2,4,0.00
2013-5-15,73,62,52,40,36,31,54,39,25,23.28,23.18,6,2,6,0.00
2013-5-16,68,58,48,42,39,35,68,49,35,23.22,23.11,12,1,12,0.00
2013-5-17,56,49,44,44,40,36,86,72,56,23.20,23.13,5,1,5,0.00
2013-5-18,48,42,38,42,38,33,94,84,62,23.27,23.20,5,1,5,0.00
2013-5-19,50,42,34,40,36,32,93,79,59,23.32,23.25,6,2,6,0.00
2013-5-20,51,44,38,44,39,34,91,84,71,23.36,23.30,5,2,5,0.00
2013-5-21,61,50,38,42,37,31,90,63,38,23.35,23.13,4,2,4,0.00
2013-5-22,70,57,41,39,32,27,65,42,21,23.11,22.97,8,2,8,0.00
2013-5-23,60,46,32,36,30,24,74,56,33,23.22,23.03,6,2,6,0.00
2013-5-24,44,39,35,29,24,20,60,55,50,23.29,23.23,2,1,2,0.00
2013-6-2,76,71,65,32,27,16,28,20,13,23.18,23.08,8,2,8,0.07
2013-6-3,66,56,47,37,27,17,58,34,21,23.29,23.13,10,2,10,0.00
2013-6-4,69,56,43,36,28,19,50,35,27,23.36,23.28,9,2,9,0.00
2013-6-5,69,56,43,39,33,28,65,44,25,23.39,23.34,9,2,9,0.01
2013-6-6,74,61,47,41,35,31,57,39,26,23.37,23.35,8,2,8,0.00
2013-6-7,76,64,51,43,38,31,50,38,26,23.36,23.26,8,1,8,0.00
2013-6-8,72,65,56,40,36,28,53,36,26,23.37,23.25,8,2,8,0.00
2013-6-9,80,67,52,44,37,28,45,34,23,23.37,23.27,7,2,7,0.00
2013-6-10,82,72,59,45,32,15,45,26,11,23.29,23.18,11,2,11,0.00
2013-6-11,73,68,59,35,26,18,33,21,16,23.35,23.19,13,2,13,0.00
2013-6-12,75,66,52,42,33,24,47,31,17,23.36,23.26,11,2,11,0.00
2013-6-13,77,70,50,41,32,18,52,27,12,23.33,23.16,17,2,17,0.00
2013-6-14,62,53,46,37,31,23,53,43,34,23.40,23.32,8,2,8,0.01
2013-6-15,69,50,40,40,28,22,53,43,33,23.36,23.32,6,1,6,0.00
2013-6-16,79,63,49,37,25,12,37,25,12,31.91,31.86,9,2,9,0.05
2013-6-17,78,64,49,37,25,12,34,24,12,31.94,31.84,6,1,6,0.00
2013-6-18,77,66,51,37,23,12,31,21,11,31.85,31.65,10,2,10,0.00
2013-6-19,70,62,46,39,25,12,38,25,13,31.81,31.61,14,2,14,0.00
2013-6-20,62,51,37,34,28,18,54,41,29,31.84,31.77,8,2,8,0.00
2013-6-21,58,47,41,34,29,26,57,49,40,31.81,31.76,4,1,4,0.00
2013-6-23,75,66,52,40,35,29,45,32,26,31.81,31.67,9,2,9,0.00
2013-6-24,73,63,52,43,33,25,69,35,22,31.78,31.65,13,2,13,0.00
2013-6-25,73,60,48,48,42,38,74,55,35,31.88,31.78,7,1,7,0.00
2013-6-26,80,69,58,51,45,38,50,42,32,31.97,31.86,8,2,8,0.00
2013-6-27,86,77,61,52,47,43,55,36,25,32.08,32.06,5,2,5,0.00
2013-6-28,89,81,70,49,43,38,48,28,19,32.11,32.03,7,2,7,0.00
2013-6-29,86,74,60,51,42,37,46,33,22,32.04,31.93,7,2,7,0.00
2013-6-30,86,81,70,53,44,34,48,28,19,32.01,31.93,8,2,8,0.01
2013-7-1,86,78,66,48,41,34,43,28,17,32.04,31.95,8,2,8,0.00
2013-7-2,85,74,60,49,42,35,46,33,19,32.04,31.93,7,2,7,0.00
2013-7-3,83,73,62,54,47,41,48,40,34,31.98,31.87,5,1,5,0.01
2013-7-4,76,67,55,60,53,46,92,64,44,31.98,31.81,7,2,10,0.69
2013-7-5,76,66,55,66,53,47,87,65,43,31.91,31.78,7,2,7,0.08
2013-7-6,75,64,53,54,49,45,90,61,38,31.89,31.81,2,0,2,0.31
2013-7-7,76,62,53,53,50,47,90,68,42,31.93,31.85,4,2,4,0.02
2013-7-8,81,64,56,54,49,42,78,60,35,32.02,31.91,7,1,7,0.00
2013-7-9,84,71,60,51,44,32,56,40,22,32.04,31.98,5,1,5,0.00
2013-7-10,84,70,56,43,36,29,42,30,16,32.01,31.89,3,1,3,0.00
2013-7-11,77,67,59,49,39,26,65,38,25,31.91,31.85,4,1,4,0.00
2013-7-12,69,60,55,55,51,47,91,73,54,31.95,31.88,5,1,5,0.13
2013-7-13,62,61,59,52,51,50,76,72,66,31.93,31.90,2,0,2,0.00
2013-7-14,82,74,66,56,48,39,65,40,25,32.01,31.93,4,1,4,0.38
2013-7-15,83,71,59,53,48,43,62,46,32,31.96,31.83,8,2,8,0.00
2013-7-16,80,66,57,62,53,48,91,65,40,32.00,31.89,8,1,8,0.76
2013-7-17,78,66,55,61,55,46,91,70,37,32.04,31.97,11,2,11,0.00
2013-7-18,83,69,54,57,51,43,86,58,26,32.00,31.96,5,1,5,0.00
2013-7-19,86,72,58,50,42,33,54,35,17,32.00,31.91,6,1,6,0.00
2013-7-20,88,72,58,45,34,28,40,26,16,31.95,31.85,6,1,6,0.00
2013-7-21,87,72,59,44,34,28,40,26,16,31.89,31.85,4,1,6,0.00
2013-7-22,87,73,59,45,33,24,35,24,13,31.95,31.88,7,2,7,0.00
2013-7-23,87,74,61,43,33,26,34,24,16,31.99,31.92,6,1,6,0.00
2013-7-24,77,68,60,49,37,22,54,33,18,31.97,31.92,10,1,10,0.00
2013-7-25,84,70,59,52,44,38,60,42,23,32.02,31.94,7,1,7,0.00
2013-7-26,86,72,58,48,38,31,48,31,16,32.08,31.98,10,1,10,0.00
2013-7-27,70,64,57,53,45,32,75,53,28,32.00,31.88,5,1,5,0.00
2013-7-28,76,63,54,54,50,44,81,64,40,31.90,31.81,8,1,8,0.13
2013-7-29,72,62,54,52,48,45,75,60,44,31.99,31.85,8,1,8,0.00
2013-7-30,80,67,54,50,44,35,70,46,23,32.05,31.99,6,1,8,0.00
2013-7-31,84,71,58,46,37,26,48,31,13,31.99,31.95,9,2,9,0.00
2013-8-1,83,73,62,52,43,34,46,35,28,31.95,31.78,11,2,11,0.00
2013-8-2,80,69,56,50,36,21,47,31,12,31.92,31.83,5,1,11,0.00
2013-8-3,82,71,61,37,30,22,30,23,13,31.97,31.89,9,2,9,0.00
2013-8-4,84,73,62,40,35,27,32,26,18,31.99,31.92,7,1,7,0.00
2013-8-5,83,71,59,45,38,33,43,31,21,31.98,31.90,12,2,12,0.00
2013-8-6,84,71,59,44,37,32,43,31,18,31.93,31.89,8,1,8,0.00
2013-8-7,82,68,58,41,37,32,45,32,21,31.93,31.87,10,2,10,0.00
2013-8-8,77,61,54,50,42,37,82,52,25,31.98,31.89,6,1,6,0.40
2013-8-9,77,62,50,45,40,35,71,47,24,31.95,31.90,13,2,13,0.00
2013-8-10,79,66,53,44,38,32,57,39,19,31.99,31.93,7,1,7,0.00
2013-8-11,77,66,55,44,38,33,52,37,21,32.02,31.92,9,1,9,0.00
2013-8-12,74,65,55,44,39,34,50,39,29,31.99,31.94,9,2,9,0.00
2013-8-13,78,66,52,44,37,29,59,37,19,32.02,31.96,7,1,7,0.00
2013-8-14,83,68,54,43,32,24,47,29,13,32.00,31.93,8,1,8,0.00
2013-8-15,85,70,56,38,28,20,36,23,11,32.00,31.94,9,1,9,0.00
2013-8-16,86,70,58,36,29,20,30,22,15,31.99,31.97,7,1,7,0.00
2013-8-17,82,68,56,46,40,33,67,37,23,32.00,31.96,13,2,13,0.00
2013-8-18,84,68,54,48,44,41,68,45,25,32.02,31.95,7,1,7,0.00
2013-8-19,83,70,59,49,45,41,52,42,29,32.02,31.96,12,1,12,0.00
2013-8-20,82,69,60,50,47,45,64,47,31,31.98,31.93,8,1,8,0.00
2013-8-21,80,68,55,51,47,40,72,50,31,32.00,31.94,8,1,8,0.00
2013-8-22,73,64,55,60,48,40,86,58,39,32.04,31.92,10,1,10,0.30
2013-8-23,66,58,54,55,52,49,86,79,65,31.98,31.85,7,1,7,0.03
2013-8-24,73,58,50,54,50,45,91,76,40,31.94,31.88,12,1,12,0.20
2013-8-25,73,62,50,52,49,44,82,63,44,32.00,31.93,6,1,6,0.00
2013-8-26,68,61,56,53,50,47,75,66,51,32.02,31.96,8,1,8,0.00
2013-8-27,68,61,54,56,52,50,88,74,58,31.99,31.92,6,1,6,0.16
2013-8-28,77,64,52,58,52,47,93,67,38,32.00,31.94,7,1,7,0.00
2013-8-29,81,68,58,54,49,47,67,52,34,32.06,32.01,7,1,7,0.00
2013-8-30,84,70,58,52,48,45,66,47,31,32.06,31.96,7,1,7,0.00
2013-8-31,80,69,59,53,49,44,62,49,37,32.00,31.94,7,1,7,0.00
2013-9-1,74,65,59,55,50,46,83,59,43,31.97,31.88,6,1,6,0.05
2013-9-2,77,66,59,59,55,51,85,69,49,31.96,31.90,7,1,7,0.01
2013-9-3,76,65,56,59,54,50,82,67,45,32.00,31.95,8,2,8,0.00
2013-9-4,80,67,56,55,53,50,84,63,39,32.06,32.01,8,1,8,0.00
2013-9-5,82,69,57,54,49,44,74,52,29,32.04,31.95,8,1,8,0.00
2013-9-6,81,68,61,50,47,41,61,48,26,32.02,31.91,12,2,12,0.00
2013-9-7,76,62,52,53,49,46,91,65,42,32.02,31.92,10,1,10,0.45
2013-9-8,59,53,51,53,50,48,94,89,81,31.96,31.86,4,1,4,0.42
2013-9-9,69,58,48,54,48,45,91,72,48,31.87,31.82,7,1,7,0.00
2013-9-10,66,57,52,52,47,44,82,70,52,31.91,31.85,6,1,6,0.01
2013-9-11,66,57,52,54,51,49,94,81,61,31.97,31.90,8,2,8,0.29
2013-9-12,64,55,49,51,48,45,93,80,57,32.00,31.88,10,2,10,0.15
2013-9-13,59,53,49,54,50,47,93,89,81,31.92,31.78,5,1,5,0.13
2013-9-14,58,52,49,54,50,47,94,92,84,31.85,31.78,5,1,5,0.79
2013-9-15,60,53,46,58,50,45,95,91,81,31.91,31.84,5,1,5,0.26
2013-9-16,73,58,48,55,48,44,92,73,40,31.94,31.85,7,1,7,0.01
2013-9-17,68,58,54,52,48,46,78,71,56,31.86,31.76,7,1,7,0.11
2013-9-19,49,46,44,30,29,27,55,51,45,31.93,31.91,2,1,2,0.00
2013-9-20,43,40,37,28,27,26,67,62,54,31.93,31.90,2,0,2,0.00
2013-9-21,69,63,59,36,34,32,39,34,29,31.62,31.59,9,2,9,0.00
2013-9-22,61,56,46,39,35,28,74,47,34,31.72,31.56,9,2,9,0.03
2013-9-23,57,48,43,37,34,30,68,59,45,31.92,31.72,10,1,10,0.00
2013-9-24,67,55,40,37,27,11,67,41,13,31.91,31.61,15,2,15,0.00
2013-9-25,61,47,33,38,29,24,91,57,25,31.63,31.49,10,1,10,0.49
2013-9-26,41,35,32,39,32,30,94,91,84,31.64,31.55,5,0,5,0.27
2013-9-27,36,33,30,34,31,28,94,91,84,31.93,31.64,5,1,7,0.04
2013-9-28,53,38,27,37,29,24,92,72,40,31.98,31.91,6,1,6,0.07
2013-9-29,63,51,38,34,28,24,63,44,25,31.93,31.79,10,2,12,0.00
2013-9-30,68,59,50,34,30,25,48,33,25,31.82,31.75,16,2,16,0.00
2013-10-1,68,53,41,36,32,29,66,46,26,31.83,31.77,10,1,10,0.00
2013-10-2,63,49,42,40,35,30,82,59,36,31.82,31.67,8,1,8,0.01
2013-10-3,44,36,30,39,29,22,87,77,61,31.77,31.61,10,1,10,0.17
2013-10-4,36,30,27,30,26,24,89,86,78,32.06,31.76,6,1,6,0.12
2013-10-5,47,35,27,34,27,23,89,75,56,32.13,32.07,7,1,7,0.07
2013-10-6,60,43,31,36,28,22,75,57,39,32.14,32.01,6,1,6,0.07
2013-10-7,68,52,39,34,27,19,61,41,21,32.01,31.75,7,1,7,0.00
2013-10-8,58,50,40,31,24,17,54,37,25,31.76,31.64,9,2,9,0.00
2013-10-9,57,44,34,36,28,23,81,57,32,31.64,31.58,10,2,10,0.00
2013-10-10,41,38,35,38,34,32,93,88,78,31.68,31.53,7,1,7,0.15
2013-10-11,46,37,32,34,30,23,91,76,50,31.84,31.67,8,1,8,0.00
2013-10-12,55,40,30,34,28,24,79,63,38,31.85,31.75,8,1,8,0.00
2013-10-13,45,40,35,39,35,32,93,81,72,31.78,31.71,6,1,6,0.37
2013-10-14,39,34,31,35,32,29,94,91,80,31.94,31.78,7,1,7,0.18
2013-10-15,40,32,28,29,26,22,91,80,60,31.95,31.91,6,1,6,0.01
2013-10-16,47,33,24,28,23,19,84,69,43,31.95,31.89,8,1,8,0.00
2013-10-17,46,37,29,27,23,18,70,58,39,31.89,31.83,5,2,5,0.00
2013-10-18,47,38,32,27,25,23,72,60,44,31.97,31.89,4,1,4,0.00
2013-10-19,53,39,30,27,22,17,70,51,32,31.97,31.88,6,1,6,0.00
2013-10-20,53,42,35,26,22,18,59,46,34,31.88,31.82,5,2,5,0.00
2013-10-21,56,42,33,31,26,23,70,55,36,32.00,31.88,3,1,3,0.00
2013-10-22,59,44,34,32,27,23,67,52,34,32.02,31.95,5,1,5,0.00
2013-10-23,63,46,35,32,26,16,66,48,30,31.96,31.90,8,1,8,0.00
2013-10-24,62,47,38,30,25,17,59,43,25,31.95,31.90,5,1,5,0.00
2013-10-25,61,48,42,29,24,18,48,39,28,32.02,31.95,8,1,8,0.00
2013-10-26,60,46,36,29,23,17,60,42,23,32.08,31.97,7,1,7,0.00
2013-10-27,62,46,36,33,22,16,57,39,18,31.97,31.54,13,1,13,0.08
2013-10-28,52,42,32,32,29,25,84,64,36,31.58,31.38,11,2,11,0.00
2013-10-29,35,32,29,32,29,26,92,88,84,31.70,31.55,2,0,2,0.00
2013-10-30,33,30,28,30,27,25,92,89,85,31.80,31.69,7,1,7,0.00
2013-10-31,38,33,30,30,28,26,89,81,67,31.91,31.80,12,2,12,0.00
2013-11-1,47,37,33,34,31,28,89,78,57,31.99,31.90,5,2,10,0.00
2013-11-2,58,40,29,31,24,14,85,56,28,31.98,31.59,8,1,8,0.00
2013-11-3,49,31,20,26,20,13,88,65,28,31.73,31.57,11,2,11,0.00
2013-11-4,28,23,20,21,15,12,81,73,64,31.79,31.69,7,1,7,0.00
2013-11-5,26,21,18,19,15,12,87,78,66,31.99,31.78,8,1,8,0.00
2013-11-6,37,29,20,29,21,13,77,72,63,32.10,31.98,8,1,8,0.00
2013-11-7,49,41,28,33,28,23,83,60,38,32.09,31.80,10,1,10,0.00
2013-11-8,49,42,36,28,24,20,65,51,32,31.85,31.79,7,2,7,0.00
2013-11-9,54,42,34,29,24,21,62,50,32,31.97,31.85,9,1,9,0.00
2013-11-10,56,42,35,28,22,20,57,45,31,32.02,31.97,5,1,5,0.00
2013-11-11,59,44,36,25,20,16,51,39,22,32.15,32.01,6,1,6,0.00
2013-11-12,59,44,35,26,20,17,51,39,25,32.20,32.10,4,1,4,0.00
2013-11-13,52,43,36,28,23,19,70,45,33,32.10,31.95,7,1,7,0.00
2013-11-14,46,37,29,27,20,13,73,53,40,31.96,31.57,7,1,7,0.00
2013-11-15,37,30,21,28,23,18,89,79,50,31.57,31.47,6,1,6,0.00
2013-11-16,29,26,21,26,23,17,91,88,85,31.54,31.35,9,1,9,0.00
2013-11-17,36,29,25,31,26,22,92,88,76,31.88,31.54,7,1,7,0.00
2013-11-18,40,32,27,36,27,24,90,81,67,31.91,31.76,5,1,5,0.00
2013-11-19,41,35,33,32,29,25,93,80,63,31.76,31.68,6,1,6,0.00
2013-11-20,39,34,32,36,32,30,94,91,84,31.70,31.62,2,0,2,0.00
2013-11-21,33,24,17,31,22,14,93,91,87,32.00,31.64,10,2,10,0.00
2013-11-22,22,15,9,15,10,4,89,79,71,32.04,31.98,7,2,7,0.00
2013-11-23,30,21,10,17,11,4,77,66,52,32.01,31.89,7,2,7,0.00
2013-11-24,36,27,23,27,21,16,82,76,69,31.91,31.83,5,1,5,0.00
2013-11-25,38,29,23,25,20,15,75,68,58,32.08,31.91,7,1,7,0.00
2013-11-26,44,32,24,28,21,18,76,65,50,32.10,32.01,5,1,5,0.00
2013-11-27,47,37,30,24,20,17,65,51,38,32.00,31.84,4,1,4,0.00
2013-11-28,45,35,30,25,20,17,63,54,41,31.90,31.83,5,1,5,0.00
2013-11-29,44,34,29,28,22,19,71,63,50,31.99,31.89,6,1,6,0.00
2013-11-30,43,32,27,26,22,19,76,67,48,32.00,31.95,6,1,6,0.00
2013-12-1,42,36,31,29,26,22,73,66,55,32.00,31.84,6,1,6,0.00
2013-12-2,44,38,32,30,26,19,89,64,36,31.85,31.47,13,2,13,0.00
2013-12-3,33,21,13,30,17,9,92,87,84,31.47,31.39,5,0,5,0.00
2013-12-4,12,6,-1,8,1,-6,84,81,74,31.66,31.41,3,0,3,0.00
2013-12-5,11,0,-5,5,-5,-10,82,80,75,31.66,31.59,2,0,2,0.00
2013-12-6,10,5,-5,4,0,-10,83,80,76,31.69,31.63,1,0,1,0.00
2013-12-7,15,11,4,12,7,0,88,86,82,31.62,31.37,4,1,4,0.00
2013-12-8,11,5,2,7,1,-3,86,83,78,31.72,31.48,4,1,4,0.00
2013-12-9,8,2,-1,3,-2,-6,85,81,75,32.01,31.72,4,1,4,0.00
2013-12-10,25,11,-1,20,6,-5,85,80,70,32.01,31.87,3,0,3,0.00
2013-12-11,27,20,12,22,15,8,86,82,74,32.06,32.02,2,1,2,0.00
2013-12-12,31,23,18,26,18,14,86,82,78,32.06,31.82,3,1,3,0.00
2013-12-13,27,22,19,17,15,13,86,75,63,32.00,31.79,5,2,5,0.00
2013-12-14,27,22,19,22,19,16,90,86,79,32.15,32.07,3,1,3,0.00
2013-12-15,38,26,18,27,18,14,90,73,50,32.14,32.08,5,1,5,0.00
2013-12-16,43,33,27,22,18,14,66,54,44,32.13,32.09,7,1,7,0.00
2013-12-17,42,32,27,21,15,11,55,49,42,32.15,31.93,2,1,2,0.00
2013-12-18,44,36,31,28,20,16,78,53,40,31.92,31.51,2,1,2,0.00
2013-12-19,34,28,21,30,25,19,91,88,82,31.57,31.38,3,1,3,0.00
2013-12-20,22,18,14,20,15,11,90,88,87,31.62,31.52,4,1,4,0.00
2013-12-21,24,20,16,22,18,13,92,90,88,31.76,31.46,5,1,5,0.00
2013-12-22,27,24,20,25,21,18,92,91,89,31.98,31.76,5,1,5,0.00
2013-12-23,33,30,27,31,28,25,93,92,91,32.08,31.97,7,0,7,0.00
2013-12-24,34,26,17,30,21,11,93,83,66,32.11,31.91,8,1,8,0.00
2013-12-25,29,19,14,19,13,9,83,75,61,32.15,32.10,5,1,5,0.00
2013-12-26,36,26,18,19,13,10,74,60,39,32.13,32.07,5,1,5,0.00
2013-12-27,41,31,26,25,19,14,73,61,45,32.10,31.89,6,1,6,0.00
2013-12-28,37,29,18,19,17,13,82,62,45,31.93,31.78,8,2,8,0.00
2013-12-29,28,20,15,16,12,8,80,70,57,31.98,31.92,7,1,7,0.00
2013-12-30,35,25,17,18,13,9,72,62,45,32.02,31.93,5,1,5,0.00
2013-12-31,38,32,24,29,23,15,87,70,53,31.94,31.86,11,2,11,0.00
2014-1-1,33,30,27,25,22,19,76,71,67,31.99,31.86,9,2,10,0.00